Mount Airy, NC

2:53 AM EST on February 23, 2017 (GMT -0500)
Mount Airy-Surry County

Weather History for KMWK - April, 2014

Change the Weather History Date:

Monday, April 28, 2014

  Actual Average (KINT) Record (KINT)
Temperature  
Mean Temperature 60 °F -  
Max Temperature 69 °F 70 °F 94 °F (1986)
Min Temperature 52 °F 49 °F 30 °F (1967)
Degree Days  
Heating Degree Days 4    
Growing Degree Days 10 (Base 50)    
Moisture  
Dew Point 50 °F    
Average Humidity 72    
Maximum Humidity 89    
Minimum Humidity 51    
Precipitation  
Precipitation 0.01 in - - ()
Sea Level Pressure  
Sea Level Pressure 29.96 in    
Wind  
Wind Speed 7 mph (ENE)    
Max Wind Speed 16 mph    
Max Gust Speed 25 mph    
Visibility 10 miles    
Events Rain    
Averages and records for this station are not official NWS values.
T = Trace of Precipitation, MM = Missing Value Source: NWS Daily Summary

Daily Weather History Graph

Daily Weather History Graph

Search for Another Location

Airport or City:

Trip Planner

Search our weather history database for the weather conditions in past years. The results will help you decide how hot, cold, wet, or windy it might be!

Date:

Astronomy

Apr. 28, 2014 Rise Set
Actual Time 6:32 AM EDT 8:07 PM EDT
Civil Twilight 6:04 AM EDT 8:35 PM EDT
Nautical Twilight 5:31 AM EDT 9:08 PM EDT
Astronomical Twilight 4:57 AM EDT 9:43 PM EDT
Moon 6:07 AM EDT (4/28) 7:44 PM EDT (4/28)
Length of Visible Light 14h 30m
Length of Day
13h 35m
Waning Crescent, 0% of the Moon is Illuminated
Apr 28
Waning Crescent
Apr 29
New
May 6
First Quarter
May 14
Full
May 21
Last Quarter

Hourly Weather History & Observations

Time (EDT) Temp. Dew Point Humidity Pressure Visibility Wind Dir Wind Speed Gust Speed Precip Events Conditions
12:10 AM 69.6 °F 51.1 °F 52% 29.96 in 10.0 mi Calm Calm - N/A   Clear
12:35 AM 68.2 °F 51.4 °F 55% 29.96 in 10.0 mi Calm Calm - N/A   Clear
12:55 AM 69.8 °F 51.3 °F 52% 29.97 in 10.0 mi ESE 4.6 mph - N/A   Clear
1:15 AM 69.6 °F 50.5 °F 51% 29.97 in 10.0 mi ENE 9.2 mph - N/A   Clear
1:35 AM 68.0 °F 49.6 °F 52% 29.97 in 10.0 mi ENE 10.4 mph 17.3 mph N/A   Clear
1:55 AM 66.7 °F 49.8 °F 54% 29.96 in 10.0 mi ENE 10.4 mph 18.4 mph N/A   Clear
2:15 AM 66.4 °F 50.0 °F 56% 29.96 in 10.0 mi East 16.1 mph 20.7 mph N/A   Scattered Clouds
2:35 AM 66.4 °F 50.0 °F 56% 29.97 in 10.0 mi ENE 13.8 mph 23.0 mph N/A   Scattered Clouds
2:55 AM 65.5 °F 50.0 °F 57% 29.96 in 10.0 mi ENE 15.0 mph 19.6 mph N/A   Scattered Clouds
3:15 AM 64.8 °F 49.8 °F 58% 29.95 in 10.0 mi East 15.0 mph 23.0 mph N/A   Clear
3:35 AM 64.2 °F 50.0 °F 60% 29.96 in 10.0 mi ENE 12.7 mph 25.3 mph N/A   Scattered Clouds
3:55 AM 63.3 °F 50.5 °F 63% 29.97 in 10.0 mi ENE 11.5 mph 21.9 mph N/A   Clear
4:15 AM 62.6 °F 51.1 °F 66% 29.97 in 10.0 mi ENE 10.4 mph 18.4 mph N/A   Clear
4:35 AM 62.1 °F 51.8 °F 69% 29.97 in 10.0 mi ENE 12.7 mph 17.3 mph N/A   Scattered Clouds
4:55 AM 61.7 °F 51.8 °F 70% 29.97 in 10.0 mi ENE 6.9 mph - N/A   Scattered Clouds
5:15 AM 61.2 °F 51.8 °F 71% 29.99 in 10.0 mi East 4.6 mph - N/A   Clear
5:35 AM 61.0 °F 51.8 °F 72% 30.00 in 10.0 mi ENE 3.5 mph - N/A   Scattered Clouds
6:15 AM 58.5 °F 52.3 °F 80% 29.97 in 10.0 mi ENE 5.8 mph - N/A Rain Light Rain
6:35 AM 57.7 °F 52.0 °F 81% 29.97 in 10.0 mi East 8.1 mph - N/A   Scattered Clouds
6:55 AM 57.7 °F 52.0 °F 81% 29.98 in 10.0 mi ENE 4.6 mph - N/A   Scattered Clouds
7:15 AM 57.7 °F 52.2 °F 82% 29.99 in 10.0 mi ENE 6.9 mph 16.1 mph N/A   Scattered Clouds
7:35 AM 57.7 °F 52.3 °F 82% 29.99 in 10.0 mi ENE 4.6 mph - N/A   Scattered Clouds
7:50 AM 57.7 °F 52.7 °F 83% 29.98 in 10.0 mi ENE 6.9 mph - N/A   Scattered Clouds
8:15 AM 58.5 °F 53.1 °F 82% 29.98 in 10.0 mi ENE 8.1 mph - N/A   Scattered Clouds
8:30 AM 58.5 °F 52.7 °F 81% 29.98 in 10.0 mi East 10.4 mph - N/A   Mostly Cloudy
8:55 AM 57.9 °F 51.1 °F 78% 29.99 in 10.0 mi East 9.2 mph - N/A   Mostly Cloudy
9:15 AM 58.8 °F 50.9 °F 75% 29.98 in 10.0 mi ENE 8.1 mph 16.1 mph N/A   Scattered Clouds
9:55 AM 59.0 °F 50.0 °F 72% 29.98 in 10.0 mi ENE 8.1 mph 17.3 mph N/A   Clear
10:15 AM 57.7 °F 48.6 °F 71% 29.98 in 10.0 mi ENE 9.2 mph 16.1 mph N/A   Scattered Clouds
10:55 AM 60.8 °F 48.7 °F 64% 30.00 in 10.0 mi East 9.2 mph - N/A   Scattered Clouds
11:15 AM 60.4 °F 48.0 °F 64% 30.01 in 10.0 mi ESE 4.6 mph - N/A   Mostly Cloudy
11:35 AM 59.9 °F 47.7 °F 64% 30.02 in 10.0 mi ENE 8.1 mph - N/A   Overcast
12:15 PM 58.8 °F 49.3 °F 71% 30.00 in 10.0 mi East 5.8 mph - N/A   Overcast
12:35 PM 57.7 °F 47.8 °F 70% 30.02 in 10.0 mi North 5.8 mph - N/A   Overcast
1:15 PM 59.9 °F 47.3 °F 63% 29.97 in 10.0 mi East 5.8 mph - N/A   Overcast
1:35 PM 59.9 °F 47.7 °F 64% 29.97 in 10.0 mi ESE 4.6 mph - N/A   Overcast
1:55 PM 60.1 °F 47.8 °F 64% 29.97 in 10.0 mi ESE 5.8 mph - N/A   Overcast
2:15 PM 60.3 °F 48.7 °F 66% 29.98 in 10.0 mi ENE 3.5 mph - N/A   Overcast
2:55 PM 60.8 °F 48.7 °F 64% 29.97 in 10.0 mi Calm Calm - N/A   Overcast
3:15 PM 61.2 °F 49.6 °F 66% 29.96 in 10.0 mi ENE 4.6 mph - N/A   Overcast
3:35 PM 61.0 °F 49.5 °F 66% 29.96 in 10.0 mi NE 6.9 mph - N/A   Overcast
3:55 PM 61.9 °F 50.4 °F 66% 29.94 in 10.0 mi East 8.1 mph - N/A   Overcast
4:15 PM 61.3 °F 50.2 °F 67% 29.93 in 10.0 mi East 8.1 mph - N/A   Overcast
4:35 PM 60.4 °F 50.4 °F 69% 29.93 in 10.0 mi East 9.2 mph - N/A   Overcast
5:15 PM 60.3 °F 50.9 °F 71% 29.92 in 10.0 mi East 8.1 mph - N/A   Overcast
5:30 PM 59.9 °F 50.9 °F 72% 29.93 in 10.0 mi ENE 8.1 mph 16.1 mph N/A   Overcast
5:55 PM 58.8 °F 50.4 °F 73% 29.94 in 10.0 mi ENE 9.2 mph - N/A   Overcast
6:15 PM 57.7 °F 49.8 °F 75% 29.97 in 10.0 mi ENE 5.8 mph - N/A   Overcast
6:35 PM 56.3 °F 51.3 °F 83% 29.93 in 7.0 mi East 8.1 mph - 0.01 in Rain Light Rain
6:55 PM 55.4 °F 50.9 °F 85% 29.96 in 10.0 mi NE 4.6 mph - 0.01 in Rain Light Rain
7:15 PM 54.9 °F 50.9 °F 86% 29.94 in 10.0 mi East 5.8 mph - N/A Rain Light Rain
7:35 PM 54.7 °F 50.5 °F 86% 29.93 in 10.0 mi East 11.5 mph - N/A Rain Light Rain
7:55 PM 54.1 °F 50.2 °F 86% 29.94 in 10.0 mi ENE 9.2 mph - N/A   Mostly Cloudy
8:15 PM 53.8 °F 50.0 °F 87% 29.95 in 10.0 mi ENE 3.5 mph - N/A   Overcast
8:35 PM 53.6 °F 49.8 °F 87% 29.94 in 10.0 mi ENE 3.5 mph - N/A   Overcast
8:55 PM 53.6 °F 50.0 °F 88% 29.94 in 10.0 mi NE 8.1 mph - N/A   Mostly Cloudy
9:15 PM 52.9 °F 49.5 °F 88% 29.95 in 10.0 mi NE 3.5 mph - N/A   Mostly Cloudy
9:35 PM 53.6 °F 50.2 °F 88% 29.95 in 10.0 mi East 5.8 mph - N/A   Overcast
9:55 PM 52.7 °F 49.5 °F 89% 29.94 in 10.0 mi Calm Calm - N/A   Overcast
10:15 PM 52.7 °F 49.6 °F 89% 29.95 in 10.0 mi NNE 3.5 mph - N/A   Overcast
10:55 PM 53.1 °F 50.0 °F 89% 29.95 in 10.0 mi ENE 3.5 mph - N/A   Overcast
11:15 PM 53.6 °F 50.2 °F 88% 29.95 in 10.0 mi Calm Calm - N/A   Overcast
11:35 PM 53.2 °F 50.0 °F 89% 29.95 in 10.0 mi Calm Calm - N/A   Overcast
11:55 PM 53.2 °F 50.0 °F 89% 29.94 in 10.0 mi NNE 3.5 mph - N/A   Overcast